When you browse on this site, cookies collect data to enhance your experience and personalize the content and advertising you see.
Visit our Privacy Policy to learn more. By continuing to use the site, you agree to this use of cookies and data.
  • En España
  • Lista de países
  • Para 7 días
  • Temperatura del agua
  • El tiempo en el mapa
  • Informadores
  • user-avatar
    Iniciar sesión

    Tiempo cada hora Gitega

    Hoy, 24 Febrero, Lunes

    Tiempo Temperatura Precipitaciones Viento Presión Humedad
    00:00 +19°C° 0 mm 1 mps 622 mmHg 89%
    01:00 +18°C° 0 mm 1 mps 622 mmHg 89%
    02:00 +18°C° 0 mm 1 mps 621 mmHg 90%
    03:00 +18°C° 0 mm 1 mps 621 mmHg 90%
    04:00 +18°C° 0 mm 1 mps 621 mmHg 89%
    05:00 +18°C° 0 mm 1 mps 621 mmHg 89%
    06:00 +19°C° 0 mm 1 mps 622 mmHg 87%
    07:00 +20°C° 0 mm 1 mps 623 mmHg 84%
    08:00 +19°C° 0 mm 0 mps 624 mmHg 82%
    09:00 +23°C° 0.4 mm 1 mps 625 mmHg 77%
    10:00 +24°C° 0.4 mm 1 mps 625 mmHg 73%
    11:00 +25°C° 0.4 mm 2 mps 625 mmHg 68%
    12:00 +25°C° 1.2 mm 2 mps 624 mmHg 70%
    13:00 +25°C° 1.2 mm 2 mps 624 mmHg 73%
    14:00 +25°C° 1.2 mm 2 mps 623 mmHg 75%
    15:00 +24°C° 2.1 mm 1 mps 623 mmHg 79%
    16:00 +24°C° 2.1 mm 1 mps 622 mmHg 82%
    17:00 +21°C° 2.1 mm 0 mps 622 mmHg 85%
    18:00 +20°C° 0.9 mm 0 mps 622 mmHg 87%
    19:00 +19°C° 0.9 mm 0 mps 623 mmHg 90%
    20:00 +18°C° 0.9 mm 0 mps 623 mmHg 92%
    21:00 +20°C° 0.2 mm 1 mps 623 mmHg 93%
    22:00 +19°C° 0.2 mm 1 mps 623 mmHg 93%
    23:00 +19°C° 0.2 mm 1 mps 624 mmHg 93%

    Mañana, 25 Febrero, Martes

    Tiempo Temperatura Precipitaciones Viento Presión Humedad
    00:00 +19°C° 0.3 mm 1 mps 623 mmHg 94%
    01:00 +19°C° 0.3 mm 1 mps 623 mmHg 94%
    02:00 +19°C° 0.3 mm 1 mps 622 mmHg 95%
    03:00 +19°C° 0.8 mm 1 mps 622 mmHg 95%
    04:00 +19°C° 0.8 mm 1 mps 622 mmHg 94%
    05:00 +19°C° 0.8 mm 1 mps 622 mmHg 94%
    06:00 +19°C° 0.5 mm 1 mps 623 mmHg 94%
    07:00 +18°C° 0.5 mm 2 mps 623 mmHg 93%
    08:00 +19°C° 0.5 mm 2 mps 624 mmHg 92%
    09:00 +19°C° 0.6 mm 2 mps 624 mmHg 90%
    10:00 +20°C° 0.6 mm 2 mps 624 mmHg 88%
    11:00 +21°C° 0.6 mm 2 mps 624 mmHg 86%
    12:00 +20°C° 0.7 mm 2 mps 624 mmHg 87%
    13:00 +20°C° 0.7 mm 2 mps 623 mmHg 87%
    14:00 +20°C° 0.7 mm 2 mps 622 mmHg 88%
    15:00 +19°C° 0.3 mm 2 mps 622 mmHg 89%
    16:00 +19°C° 0.3 mm 2 mps 622 mmHg 90%
    17:00 +19°C° 0.3 mm 1 mps 621 mmHg 91%
    18:00 +19°C° 0 mm 1 mps 622 mmHg 90%
    19:00 +19°C° 0 mm 1 mps 622 mmHg 90%
    20:00 +17°C° 0 mm 0 mps 622 mmHg 89%
    21:00 +18°C° 0.1 mm 1 mps 623 mmHg 90%
    22:00 +18°C° 0.1 mm 1 mps 623 mmHg 90%
    23:00 +18°C° 0.1 mm 1 mps 623 mmHg 90%

    Pasado mañana, 26 Febrero, Miércoles

    Tiempo Temperatura Precipitaciones Viento Presión Humedad
    00:00 +18°C° 0 mm 1 mps 622 mmHg 90%
    01:00 +16°C° 0 mm 0 mps 622 mmHg 89%
    02:00 +16°C° 0 mm 0 mps 622 mmHg 89%
    03:00 +16°C° 0 mm 0 mps 622 mmHg 89%
    04:00 +16°C° 0 mm 0 mps 622 mmHg 89%
    05:00 +18°C° 0 mm 1 mps 622 mmHg 88%
    06:00 +16°C° 0 mm 0 mps 623 mmHg 88%
    07:00 +17°C° 0 mm 0 mps 623 mmHg 88%
    08:00 +17°C° 0 mm 0 mps 623 mmHg 87%
    09:00 +18°C° 0 mm 0 mps 624 mmHg 85%
    10:00 +18°C° 0 mm 0 mps 624 mmHg 83%
    11:00 +19°C° 0 mm 0 mps 624 mmHg 82%
    12:00 +22°C° 0.1 mm 1 mps 624 mmHg 76%
    13:00 +24°C° 0.1 mm 1 mps 623 mmHg 70%
    14:00 +25°C° 0.1 mm 2 mps 623 mmHg 65%
    15:00 +24°C° 0.5 mm 2 mps 623 mmHg 70%
    16:00 +24°C° 0.5 mm 1 mps 622 mmHg 75%
    17:00 +23°C° 0.5 mm 1 mps 622 mmHg 80%
    18:00 +22°C° 0.8 mm 1 mps 622 mmHg 84%
    19:00 +20°C° 0.8 mm 1 mps 622 mmHg 87%
    20:00 +19°C° 0.8 mm 1 mps 622 mmHg 91%
    21:00 +19°C° 0.3 mm 1 mps 623 mmHg 91%
    22:00 +19°C° 0.3 mm 1 mps 623 mmHg 92%
    23:00 +17°C° 0.3 mm 0 mps 623 mmHg 92%

    27 Febrero, Jueves

    Tiempo Temperatura Precipitaciones Viento Presión Humedad
    00:00 +16°C° 0 mm 0 mps 623 mmHg 92%
    01:00 +16°C° 0 mm 0 mps 622 mmHg 93%
    02:00 +18°C° 0 mm 1 mps 622 mmHg 93%
    03:00 +16°C° 0 mm 0 mps 622 mmHg 94%
    04:00 +15°C° 0 mm 0 mps 622 mmHg 94%
    05:00 +15°C° 0 mm 0 mps 622 mmHg 94%
    06:00 +16°C° 0 mm 0 mps 623 mmHg 93%
    07:00 +17°C° 0 mm 0 mps 624 mmHg 92%
    08:00 +18°C° 0 mm 0 mps 624 mmHg 91%
    09:00 +21°C° 0.3 mm 1 mps 625 mmHg 87%
    10:00 +22°C° 0.3 mm 1 mps 625 mmHg 83%
    11:00 +23°C° 0.3 mm 2 mps 625 mmHg 79%
    12:00 +23°C° 1.1 mm 2 mps 625 mmHg 79%
    13:00 +24°C° 1.1 mm 2 mps 624 mmHg 79%
    14:00 +24°C° 1.1 mm 2 mps 623 mmHg 79%
    15:00 +23°C° 1.9 mm 2 mps 623 mmHg 83%
    16:00 +21°C° 1.9 mm 2 mps 622 mmHg 86%
    17:00 +22°C° 1.9 mm 1 mps 622 mmHg 89%
    18:00 +21°C° 0.4 mm 1 mps 622 mmHg 90%
    19:00 +20°C° 0.4 mm 1 mps 622 mmHg 91%
    20:00 +17°C° 0.4 mm 0 mps 623 mmHg 92%
    21:00 +17°C° 0 mm 0 mps 623 mmHg 92%
    22:00 +16°C° 0 mm 0 mps 623 mmHg 92%
    23:00 +18°C° 0 mm 1 mps 623 mmHg 91%

    28 Febrero, Viernes

    Tiempo Temperatura Precipitaciones Viento Presión Humedad
    00:00 +18°C° 0 mm 1 mps 623 mmHg 91%
    01:00 +18°C° 0 mm 1 mps 623 mmHg 91%
    02:00 +18°C° 0 mm 1 mps 623 mmHg 91%
    03:00 +16°C° 0 mm 0 mps 623 mmHg 90%
    04:00 +16°C° 0 mm 0 mps 623 mmHg 90%
    05:00 +16°C° 0 mm 0 mps 623 mmHg 90%
    06:00 +17°C° 0 mm 0 mps 623 mmHg 88%
    07:00 +18°C° 0 mm 0 mps 624 mmHg 87%
    08:00 +18°C° 0 mm 0 mps 624 mmHg 85%
    09:00 +20°C° 0 mm 0 mps 625 mmHg 81%
    10:00 +23°C° 0 mm 1 mps 625 mmHg 77%
    11:00 +24°C° 0 mm 1 mps 625 mmHg 73%
    12:00 +24°C° 1.1 mm 1 mps 625 mmHg 73%
    13:00 +25°C° 1.1 mm 1 mps 624 mmHg 74%
    14:00 +25°C° 1.1 mm 1 mps 623 mmHg 74%
    15:00 +24°C° 0.8 mm 1 mps 623 mmHg 76%
    16:00 +24°C° 0.8 mm 1 mps 623 mmHg 79%
    17:00 +24°C° 0.8 mm 1 mps 622 mmHg 82%
    18:00 +23°C° 0.3 mm 1 mps 622 mmHg 84%
    19:00 +21°C° 0.3 mm 1 mps 622 mmHg 86%
    20:00 +18°C° 0.3 mm 0 mps 623 mmHg 88%
    21:00 +18°C° 0 mm 0 mps 623 mmHg 88%
    22:00 +18°C° 0 mm 0 mps 623 mmHg 89%
    23:00 +18°C° 0 mm 0 mps 623 mmHg 89%

    29 Febrero, Sábado

    Tiempo Temperatura Precipitaciones Viento Presión Humedad
    00:00 +17°C° 0 mm 0 mps 623 mmHg 89%
    01:00 +17°C° 0 mm 0 mps 622 mmHg 90%
    02:00 +19°C° 0 mm 1 mps 622 mmHg 90%
    03:00 +18°C° 0.1 mm 1 mps 622 mmHg 90%
    04:00 +18°C° 0.1 mm 1 mps 622 mmHg 91%
    05:00 +16°C° 0.1 mm 0 mps 622 mmHg 91%
    06:00 +17°C° 0.2 mm 0 mps 623 mmHg 90%
    07:00 +18°C° 0.2 mm 0 mps 623 mmHg 89%
    08:00 +18°C° 0.2 mm 0 mps 624 mmHg 88%
    09:00 +22°C° 0.4 mm 1 mps 624 mmHg 84%
    10:00 +23°C° 0.4 mm 1 mps 624 mmHg 80%
    11:00 +24°C° 0.4 mm 1 mps 624 mmHg 76%
    12:00 +24°C° 0.7 mm 1 mps 624 mmHg 75%
    13:00 +24°C° 0.7 mm 1 mps 623 mmHg 73%
    14:00 +24°C° 0.7 mm 1 mps 623 mmHg 72%
    15:00 +22°C° 0 mm 0 mps 622 mmHg 74%
    16:00 +22°C° 0 mm 0 mps 622 mmHg 76%
    17:00 +21°C° 0 mm 0 mps 621 mmHg 78%
    18:00 +20°C° 0.1 mm 0 mps 621 mmHg 82%
    19:00 +18°C° 0.1 mm 0 mps 621 mmHg 86%
    20:00 +17°C° 0.1 mm 0 mps 621 mmHg 90%
    21:00 +17°C° 0.1 mm 0 mps 621 mmHg 90%
    22:00 +16°C° 0.1 mm 0 mps 622 mmHg 90%
    23:00 +18°C° 0.1 mm 1 mps 622 mmHg 90%
    Mostrar más